DLH22T EDDF-EDXW

Flight info

Callsign DLH22T
Flight time 0h 51m
Altitude 37000
Route MARUN3W/25C MARUN Y150 TOLGI DCT ELSOB Y348 OMWEG DCT BADOS DCT OLDIP
Aircraft A319/M-SDE3FGHIRWY/LB1

Departure

Time 2026-05-04 18:26
Airport Frankfurt Main Airport (EDDF)

Arrival

Time 2026-05-04 19:17
Airport Westerland Sylt Airport (EDXW)
Time Latitude Longitude Altitude Speed Heading
2026-05-04 18:00 50.04821 8.58502 363 ft 0 kts 159°
2026-05-04 18:15 50.04835 8.58494 362 ft 4 kts 159°
2026-05-04 18:15 50.04858 8.58481 362 ft 2 kts 160°
2026-05-04 18:16 50.04875 8.58466 363 ft 4 kts 101°
2026-05-04 18:16 50.04871 8.58431 366 ft 3 kts 69°
2026-05-04 18:16 50.04868 8.58419 360 ft 1 kts 69°
2026-05-04 18:17 50.04868 8.58420 360 ft 0 kts 69°
2026-05-04 18:19 50.04870 8.58426 360 ft 2 kts 69°
2026-05-04 18:19 50.04882 8.58474 363 ft 7 kts 69°
2026-05-04 18:20 50.04902 8.58558 360 ft 9 kts 69°
2026-05-04 18:20 50.04909 8.58656 360 ft 9 kts 112°
2026-05-04 18:20 50.04873 8.58692 362 ft 0 kts 159°
2026-05-04 18:22 50.04862 8.58698 363 ft 4 kts 159°
2026-05-04 18:22 50.04838 8.58713 364 ft 3 kts 159°
2026-05-04 18:22 50.04822 8.58722 366 ft 3 kts 159°
2026-05-04 18:23 50.04800 8.58735 369 ft 3 kts 159°
2026-05-04 18:23 50.04781 8.58746 370 ft 3 kts 159°
2026-05-04 18:23 50.04746 8.58765 368 ft 9 kts 163°
2026-05-04 18:23 50.04673 8.58764 370 ft 13 kts 186°
2026-05-04 18:24 50.04582 8.58714 371 ft 15 kts 220°
2026-05-04 18:24 50.04521 8.58645 371 ft 7 kts 214°
2026-05-04 18:24 50.04486 8.58589 370 ft 6 kts 246°
2026-05-04 18:24 50.04485 8.58585 370 ft 0 kts 247°
2026-05-04 18:25 50.04485 8.58584 370 ft 1 kts 247°
2026-05-04 18:25 50.04473 8.58534 370 ft 21 kts 249°
2026-05-04 18:25 50.04321 8.57895 368 ft 100 kts 250°
2026-05-04 18:25 50.04003 8.56561 361 ft 160 kts 249°
2026-05-04 18:26 50.03605 8.54909 890 ft 165 kts 251°
2026-05-04 18:26 50.03195 8.53231 1609 ft 168 kts 251°
2026-05-04 18:26 50.02771 8.51420 2027 ft 190 kts 251°
2026-05-04 18:26 50.02080 8.49532 2429 ft 212 kts 228°
2026-05-04 18:27 50.00857 8.48249 3293 ft 214 kts 200°
2026-05-04 18:27 49.99408 8.47809 4251 ft 211 kts 187°
2026-05-04 18:27 49.97950 8.47512 5163 ft 212 kts 188°
2026-05-04 18:27 49.96461 8.47176 6168 ft 208 kts 188°
2026-05-04 18:28 49.95064 8.46649 6801 ft 222 kts 196°
2026-05-04 18:28 49.93515 8.45935 7374 ft 238 kts 197°
2026-05-04 18:28 49.91960 8.44968 8207 ft 245 kts 213°
2026-05-04 18:28 49.90875 8.42911 9076 ft 254 kts 245°
2026-05-04 18:29 49.90614 8.40193 10027 ft 262 kts 272°
2026-05-04 18:29 49.91209 8.37494 10883 ft 272 kts 299°
2026-05-04 18:29 49.92632 8.35512 11685 ft 285 kts 331°
2026-05-04 18:29 49.94471 8.34332 12585 ft 288 kts 334°
2026-05-04 18:30 49.98238 8.31964 14150 ft 297 kts 334°
2026-05-04 18:30 50.00152 8.30734 14859 ft 301 kts 334°
2026-05-04 18:30 50.02139 8.29596 15573 ft 307 kts 342°
2026-05-04 18:31 50.04270 8.29042 16254 ft 317 kts 353°
2026-05-04 18:31 50.06549 8.29073 16604 ft 337 kts
2026-05-04 18:31 50.08873 8.29833 17221 ft 345 kts 17°
2026-05-04 18:31 50.11130 8.31139 17996 ft 348 kts 19°
2026-05-04 18:32 50.13462 8.32441 18264 ft 367 kts 18°
2026-05-04 18:32 50.15941 8.33728 18499 ft 383 kts 17°
2026-05-04 18:32 50.18514 8.35026 19015 ft 389 kts 17°
2026-05-04 18:32 50.21102 8.36332 19610 ft 394 kts 17°
2026-05-04 18:33 50.23717 8.37667 20226 ft 397 kts 17°
2026-05-04 18:33 50.26353 8.39032 20831 ft 401 kts 17°
2026-05-04 18:33 50.29038 8.40444 21454 ft 404 kts 17°
2026-05-04 18:33 50.31683 8.41860 22040 ft 408 kts 18°
2026-05-04 18:34 50.34378 8.43332 22639 ft 412 kts 18°
2026-05-04 18:34 50.37091 8.44828 23245 ft 415 kts 18°
2026-05-04 18:34 50.39823 8.46335 23782 ft 419 kts 18°
2026-05-04 18:34 50.42587 8.47858 24261 ft 422 kts 18°
2026-05-04 18:35 50.45370 8.49387 24732 ft 426 kts 18°
2026-05-04 18:35 50.48177 8.50915 25193 ft 429 kts 17°
2026-05-04 18:35 50.51030 8.52372 25649 ft 432 kts 15°
2026-05-04 18:35 50.53918 8.53756 26096 ft 435 kts 15°
2026-05-04 18:36 50.56833 8.55109 26544 ft 438 kts 13°
2026-05-04 18:36 50.59763 8.56460 26978 ft 442 kts 14°
2026-05-04 18:36 50.62630 8.58297 27270 ft 448 kts 29°
2026-05-04 18:36 50.65114 8.61268 27531 ft 451 kts 41°
2026-05-04 18:37 50.67443 8.64604 27794 ft 453 kts 42°
2026-05-04 18:37 50.69777 8.67967 27951 ft 456 kts 42°
2026-05-04 18:37 50.72116 8.71347 27977 ft 456 kts 42°
2026-05-04 18:37 50.74456 8.74729 27975 ft 456 kts 42°
2026-05-04 18:38 50.76799 8.78110 27977 ft 456 kts 41°
2026-05-04 18:38 50.79149 8.81500 27980 ft 462 kts 41°
2026-05-04 18:38 50.81549 8.84965 27972 ft 472 kts 41°
2026-05-04 18:38 50.83983 8.88485 27973 ft 475 kts 42°
2026-05-04 18:39 50.86421 8.92015 27979 ft 476 kts 42°
2026-05-04 18:39 50.88864 8.95557 27980 ft 476 kts 42°
2026-05-04 18:39 50.91303 8.99100 27983 ft 476 kts 42°
2026-05-04 18:39 50.93742 9.02652 27987 ft 476 kts 42°
2026-05-04 18:40 50.96183 9.06210 27990 ft 476 kts 42°
2026-05-04 18:40 51.01057 9.13334 27996 ft 477 kts 42°
2026-05-04 18:40 51.03495 9.16913 28000 ft 477 kts 42°
2026-05-04 18:41 51.05931 9.20495 28001 ft 478 kts 42°
2026-05-04 18:41 51.11244 9.26751 28003 ft 474 kts 26°
2026-05-04 18:41 51.14260 9.28873 28330 ft 475 kts 17°
2026-05-04 18:42 51.17435 9.30311 28719 ft 474 kts
2026-05-04 18:42 51.20670 9.31427 29102 ft 477 kts
2026-05-04 18:42 51.23919 9.32556 29488 ft 479 kts
2026-05-04 18:42 51.27145 9.33685 29862 ft 482 kts
2026-05-04 18:43 51.30429 9.34837 30173 ft 485 kts
2026-05-04 18:43 51.33735 9.35993 30458 ft 487 kts
2026-05-04 18:43 51.37049 9.37147 30772 ft 489 kts
2026-05-04 18:43 51.40370 9.38300 31182 ft 488 kts
2026-05-04 18:44 51.43685 9.39454 31441 ft 487 kts
2026-05-04 18:44 51.45877 9.40220 31611 ft 487 kts
2026-05-04 18:44 51.50312 9.41774 31934 ft 488 kts
2026-05-04 18:45 51.56947 9.44101 31996 ft 488 kts
2026-05-04 18:45 51.63572 9.46430 31991 ft 488 kts
2026-05-04 18:46 51.70199 9.48775 31985 ft 488 kts
2026-05-04 18:46 51.76831 9.51138 31985 ft 489 kts
2026-05-04 18:47 51.83493 9.53205 31978 ft 484 kts
2026-05-04 18:47 51.90201 9.53471 32458 ft 482 kts 356°
2026-05-04 18:47 51.93548 9.53544 32903 ft 481 kts 356°
2026-05-04 18:48 51.96895 9.53629 33337 ft 480 kts 356°
2026-05-04 18:48 52.00233 9.53722 33771 ft 479 kts 356°
2026-05-04 18:48 52.03564 9.53816 34172 ft 479 kts 356°
2026-05-04 18:48 52.06891 9.53907 34551 ft 478 kts 356°
2026-05-04 18:49 52.10211 9.53991 34919 ft 476 kts 356°
2026-05-04 18:49 52.13522 9.54068 35297 ft 475 kts 356°
2026-05-04 18:49 52.16812 9.54140 35710 ft 473 kts 356°
2026-05-04 18:49 52.20108 9.54215 36087 ft 472 kts 356°
2026-05-04 18:50 52.23385 9.54294 36419 ft 471 kts 356°
2026-05-04 18:50 52.26658 9.54374 36744 ft 470 kts 356°
2026-05-04 18:50 52.29926 9.54454 36943 ft 470 kts 356°
2026-05-04 18:51 52.36455 9.54620 36972 ft 469 kts 356°
2026-05-04 18:51 52.42965 9.54786 36973 ft 467 kts 356°
2026-05-04 18:52 52.49489 9.54962 36974 ft 467 kts 356°
2026-05-04 18:52 52.55971 9.55132 36973 ft 467 kts 356°
2026-05-04 18:53 52.62473 9.55303 36986 ft 467 kts 356°
2026-05-04 18:53 52.68954 9.55206 36979 ft 461 kts 346°
2026-05-04 18:54 52.75143 9.52761 36969 ft 457 kts 341°
2026-05-04 18:54 52.81304 9.50155 36956 ft 457 kts 341°
2026-05-04 18:55 52.87427 9.47552 36958 ft 457 kts 341°
2026-05-04 18:55 52.96674 9.43625 36970 ft 457 kts 341°
2026-05-04 18:56 53.01838 9.41426 36973 ft 457 kts 341°
2026-05-04 18:56 53.08000 9.38787 36984 ft 457 kts 341°
2026-05-04 18:57 53.14157 9.36146 36982 ft 457 kts 341°
2026-05-04 18:57 53.20318 9.33494 36985 ft 457 kts 341°
2026-05-04 18:58 53.26434 9.30863 36987 ft 457 kts 341°
2026-05-04 18:58 53.32593 9.28200 36981 ft 457 kts 340°
2026-05-04 18:59 53.38750 9.25530 36886 ft 456 kts 341°
2026-05-04 18:59 53.41815 9.24201 36408 ft 454 kts 340°
2026-05-04 18:59 53.44879 9.22874 35836 ft 454 kts 340°
2026-05-04 19:00 53.47927 9.21546 35224 ft 453 kts 340°
2026-05-04 19:00 53.50980 9.20204 34606 ft 453 kts 339°
2026-05-04 19:00 53.54033 9.18855 34002 ft 453 kts 339°
2026-05-04 19:00 53.57088 9.17505 33305 ft 454 kts 339°
2026-05-04 19:01 53.60146 9.16154 32387 ft 456 kts 339°
2026-05-04 19:01 53.63237 9.14791 31372 ft 461 kts 339°
2026-05-04 19:01 53.66356 9.13418 30398 ft 465 kts 339°
2026-05-04 19:01 53.69501 9.12034 29208 ft 470 kts 339°
2026-05-04 19:02 53.72672 9.10638 28527 ft 472 kts 339°
2026-05-04 19:02 53.75859 9.09234 27988 ft 474 kts 339°
2026-05-04 19:02 53.79052 9.07827 27441 ft 474 kts 339°
2026-05-04 19:02 53.82245 9.06413 26820 ft 474 kts 340°
2026-05-04 19:03 53.85442 9.04991 26182 ft 474 kts 340°
2026-05-04 19:03 53.88632 9.03569 25564 ft 474 kts 340°
2026-05-04 19:03 53.91826 9.02140 24993 ft 474 kts 339°
2026-05-04 19:03 53.94997 9.00721 24396 ft 469 kts 340°
2026-05-04 19:04 53.98137 8.99321 23810 ft 464 kts 340°
2026-05-04 19:04 54.01245 8.97938 23146 ft 458 kts 340°
2026-05-04 19:04 54.04293 8.96582 22421 ft 449 kts 340°
2026-05-04 19:04 54.07300 8.95241 21706 ft 444 kts 340°
2026-05-04 19:05 54.10270 8.93906 20965 ft 440 kts 340°
2026-05-04 19:05 54.13213 8.92576 20212 ft 435 kts 341°
2026-05-04 19:05 54.16127 8.91255 19478 ft 432 kts 341°
2026-05-04 19:05 54.19020 8.89938 18784 ft 428 kts 341°
2026-05-04 19:06 54.21884 8.88634 18038 ft 425 kts 342°
2026-05-04 19:06 54.24731 8.87344 17216 ft 421 kts 342°
2026-05-04 19:06 54.27551 8.86069 16445 ft 418 kts 342°
2026-05-04 19:06 54.30357 8.84795 15680 ft 415 kts 342°
2026-05-04 19:07 54.33105 8.83544 14908 ft 413 kts 342°
2026-05-04 19:07 54.35921 8.82260 14057 ft 414 kts 342°
2026-05-04 19:07 54.38693 8.80994 13397 ft 409 kts 342°
2026-05-04 19:07 54.41386 8.79764 12750 ft 404 kts 342°
2026-05-04 19:08 54.44084 8.78534 12126 ft 398 kts 341°
2026-05-04 19:08 54.46738 8.77323 11488 ft 392 kts 341°
2026-05-04 19:08 54.49341 8.76129 11075 ft 378 kts 341°
2026-05-04 19:08 54.51781 8.75009 10922 ft 348 kts 341°
2026-05-04 19:09 54.54026 8.73982 10797 ft 321 kts 341°
2026-05-04 19:09 54.56105 8.73030 10653 ft 299 kts 340°
2026-05-04 19:09 54.58075 8.72120 10247 ft 289 kts 340°
2026-05-04 19:09 54.59999 8.71222 9691 ft 285 kts 340°
2026-05-04 19:10 54.61853 8.70134 9067 ft 278 kts 329°
2026-05-04 19:10 54.63466 8.68383 8443 ft 272 kts 320°
2026-05-04 19:10 54.64981 8.66451 7801 ft 270 kts 320°
2026-05-04 19:10 54.66500 8.64565 7163 ft 266 kts 321°
2026-05-04 19:11 54.67997 8.62741 6250 ft 262 kts 322°
2026-05-04 19:11 54.69478 8.60935 5286 ft 259 kts 322°
2026-05-04 19:11 54.70920 8.59173 4758 ft 242 kts 322°
2026-05-04 19:11 54.72223 8.57580 4475 ft 220 kts 322°
2026-05-04 19:12 54.73442 8.56086 4190 ft 207 kts 322°
2026-05-04 19:12 54.75641 8.53390 3671 ft 186 kts 322°
2026-05-04 19:12 54.76688 8.52102 3450 ft 185 kts 322°
2026-05-04 19:13 54.77731 8.50822 3174 ft 181 kts 322°
2026-05-04 19:13 54.78733 8.49590 2924 ft 173 kts 322°
2026-05-04 19:13 54.79700 8.48401 2694 ft 169 kts 323°
2026-05-04 19:13 54.80660 8.47224 2477 ft 170 kts 323°
2026-05-04 19:14 54.81621 8.46041 2244 ft 169 kts 323°
2026-05-04 19:14 54.82562 8.44877 2010 ft 163 kts 324°
2026-05-04 19:14 54.83472 8.43759 1773 ft 158 kts 325°
2026-05-04 19:14 54.84326 8.42710 1595 ft 142 kts 324°
2026-05-04 19:15 54.85085 8.41770 1364 ft 127 kts 324°
2026-05-04 19:15 54.85797 8.40895 1154 ft 123 kts 325°
2026-05-04 19:15 54.86478 8.40051 1027 ft 120 kts 325°
2026-05-04 19:15 54.87156 8.39213 855 ft 121 kts 325°
2026-05-04 19:16 54.87843 8.38357 697 ft 118 kts 325°
2026-05-04 19:16 54.88515 8.37532 537 ft 120 kts 326°
2026-05-04 19:16 54.89203 8.36680 387 ft 122 kts 326°
2026-05-04 19:16 54.89885 8.35836 205 ft 122 kts 326°
2026-05-04 19:17 54.90550 8.35007 50 ft 112 kts 326°
2026-05-04 19:17 54.91049 8.34387 45 ft 51 kts 324°
2026-05-04 19:17 54.91239 8.34155 45 ft 25 kts 324°
2026-05-04 19:17 54.91308 8.34003 41 ft 15 kts 253°
2026-05-04 19:18 54.91249 8.33828 37 ft 19 kts 240°
2026-05-04 19:18 54.91181 8.33621 36 ft 20 kts 239°
2026-05-04 19:18 54.91105 8.33396 37 ft 22 kts 239°
2026-05-04 19:18 54.91057 8.33257 37 ft 10 kts 239°
2026-05-04 19:19 54.91085 8.33179 36 ft 11 kts
2026-05-04 19:19 54.91164 8.33181 37 ft 12 kts
2026-05-04 19:19 54.91238 8.33181 36 ft 11 kts 358°
2026-05-04 19:19 54.91311 8.33223 33 ft 13 kts 28°
2026-05-04 19:20 54.91366 8.33249 32 ft 6 kts 351°
2026-05-04 19:20 54.91387 8.33192 31 ft 4 kts 272°
2026-05-04 19:20 54.91386 8.33146 30 ft 2 kts 269°